,,,PA_Meas_PMT16A,,PR_Meas_QMR101_102,,RH_Meas_QMH101,,SR_Meas_QMS101,,TA_Meas_QMH101,,GenWind,,GenWind,
date,time,status,PA,status,PR,status,RH,status,SR,status,TA,status,DirAvg,status,SpdAvg,
2009-04-05, 00:00:05,VALID,999.346,VALID,0,VALID,92.5549,VALID,0,VALID,23.5079,VALID,66,VALID,0.558594,
2009-04-05, 00:01:05,VALID,999.331,VALID,0,VALID,92.532,VALID,0,VALID,23.5487,VALID,66,VALID,0.460938,
2009-04-05, 00:02:05,VALID,999.253,VALID,0,VALID,92.4863,VALID,0,VALID,23.5274,VALID,66,VALID,0.617188,
2009-04-05, 00:03:05,VALID,999.237,VALID,0,VALID,92.471,VALID,0,VALID,23.5274,VALID,64,VALID,0.566406,
2009-04-05, 00:04:05,VALID,999.215,VALID,0,VALID,92.3871,VALID,0,VALID,23.5061,VALID,64,VALID,0.575391,
2009-04-05, 00:05:05,VALID,999.183,VALID,0,VALID,92.4481,VALID,0,VALID,23.5079,VALID,64,VALID,0.470703,
2009-04-05, 00:06:05,VALID,999.181,VALID,0,VALID,92.4405,VALID,0,VALID,23.5079,VALID,69,VALID,0.496484,
2009-04-05, 00:07:05,VALID,999.17,VALID,0,VALID,92.4634,VALID,0,VALID,23.5079,VALID,69,VALID,0.335547,
2009-04-05, 00:08:05,VALID,999.116,VALID,0,VALID,92.4634,VALID,0,VALID,23.5079,VALID,69,VALID,0.282813,
2009-04-05, 00:09:05,VALID,999.093,VALID,0,VALID,92.4863,VALID,0,VALID,23.5079,VALID,69,VALID,0.189063,
2009-04-05, 00:10:05,VALID,999.1,VALID,0,VALID,92.5168,VALID,0,VALID,23.5079,VALID,69,VALID,0.169922,
2009-04-05, 00:11:05,VALID,999.079,VALID,0,VALID,92.5015,VALID,0,VALID,23.5274,VALID,69,VALID,0.239063,
2009-04-05, 00:12:05,VALID,999.099,VALID,0,VALID,92.4481,VALID,0,VALID,23.5079,VALID,69,VALID,0.476172,
2009-04-05, 00:13:05,VALID,999.07,VALID,0,VALID,92.3871,VALID,0,VALID,23.5079,VALID,48,VALID,0.530078,
2009-04-05, 00:14:05,VALID,999.049,VALID,0,VALID,92.2955,VALID,0,VALID,23.5274,VALID,48,VALID,0.492188,
2009-04-05, 00:15:05,VALID,999.086,VALID,0,VALID,92.2268,VALID,0,VALID,23.5469,VALID,47,VALID,0.488281,
2009-04-05, 00:16:05,VALID,998.997,VALID,0,VALID,92.265,VALID,0,VALID,23.5664,VALID,39,VALID,0.567187,
2009-04-05, 00:17:05,VALID,998.994,VALID,0,VALID,92.2497,VALID,0,VALID,23.5664,VALID,39,VALID,0.434766,
2009-04-05, 00:18:05,VALID,998.924,VALID,0,VALID,92.204,VALID,0,VALID,23.5664,VALID,39,VALID,0.267969,
2009-04-05, 00:19:05,VALID,998.879,VALID,0,VALID,92.204,VALID,0,VALID,23.5859,VALID,39,VALID,0.0648438,
2009-04-05, 00:20:05,VALID,998.848,VALID,0,VALID,92.1582,VALID,0,VALID,23.5859,VALID,39,VALID,0,
2009-04-05, 00:21:05,VALID,998.817,VALID,0,VALID,92.0514,VALID,0,VALID,23.6054,VALID,39,VALID,0,
2009-04-05, 00:22:05,VALID,998.777,VALID,0,VALID,92.0209,VALID,0,VALID,23.5859,VALID,39,VALID,0,
2009-04-05, 00:23:05,VALID,998.764,VALID,0,VALID,92.1353,VALID,0,VALID,23.6054,VALID,39,VALID,0.329688,
2009-04-05, 00:24:05,VALID,998.752,VALID,0,VALID,92.2345,VALID,0,VALID,23.6054,VALID,38,VALID,0.527344,
2009-04-05, 00:25:05,VALID,998.735,VALID,0,VALID,92.2192,VALID,0,VALID,23.6445,VALID,29,VALID,0.740625,
2009-04-05, 00:26:05,VALID,998.702,VALID,0,VALID,92.1353,VALID,0,VALID,23.6427,VALID,28,VALID,0.841797,
2009-04-05, 00:27:05,VALID,998.711,VALID,0,VALID,92.0514,VALID,0,VALID,23.6835,VALID,22,VALID,0.830469,
2009-04-05, 00:28:05,VALID,998.689,VALID,0,VALID,91.9903,VALID,0,VALID,23.6817,VALID,23,VALID,0.786719,
2009-04-05, 00:29:05,VALID,998.709,VALID,0,VALID,91.9827,VALID,0,VALID,23.703,VALID,26,VALID,0.592188,
2009-04-05, 00:30:05,VALID,998.712,VALID,0,VALID,92.0514,VALID,0,VALID,23.703,VALID,28,VALID,0.569141,
2009-04-05, 00:31:05,VALID,998.706,VALID,0,VALID,92.0819,VALID,0,VALID,23.703,VALID,30,VALID,0.6,
2009-04-05, 00:32:05,VALID,998.702,VALID,0,VALID,92.12,VALID,0,VALID,23.6835,VALID,30,VALID,0.666406,
2009-04-05, 00:33:05,VALID,998.66,VALID,0,VALID,92.1124,VALID,0,VALID,23.664,VALID,30,VALID,0.825,
2009-04-05, 00:34:05,VALID,998.661,VALID,0,VALID,92.1353,VALID,0,VALID,23.6232,VALID,28,VALID,0.780859,
2009-04-05, 00:35:05,VALID,998.629,VALID,0,VALID,92.1658,VALID,0,VALID,23.6445,VALID,20,VALID,1.16992,
2009-04-05, 00:36:05,VALID,998.597,VALID,0,VALID,92.2192,VALID,0,VALID,23.625,VALID,19,VALID,1.07305,
2009-04-05, 00:37:05,VALID,998.601,VALID,0,VALID,92.2574,VALID,0,VALID,23.6054,VALID,17,VALID,0.949609,
2009-04-05, 00:38:05,VALID,998.599,VALID,0,VALID,92.3108,VALID,0,VALID,23.5664,VALID,22,VALID,0.81875,
2009-04-05, 00:39:05,VALID,998.632,VALID,0,VALID,92.3642,VALID,0,VALID,23.5664,VALID,29,VALID,0.600781,
2009-04-05, 00:40:05,VALID,998.632,VALID,0,VALID,92.3794,VALID,0,VALID,23.5469,VALID,29,VALID,0.35625,
2009-04-05, 00:41:05,VALID,998.649,VALID,0,VALID,92.4252,VALID,0,VALID,23.5256,VALID,29,VALID,0.393359,
2009-04-05, 00:42:05,VALID,998.653,VALID,0,VALID,92.4252,VALID,0,VALID,23.5274,VALID,29,VALID,0.176563,
2009-04-05, 00:43:05,VALID,998.647,VALID,0,VALID,92.4328,VALID,0,VALID,23.5079,VALID,29,VALID,0.527344,
2009-04-05, 00:44:05,VALID,998.601,VALID,0,VALID,92.4863,VALID,0,VALID,23.4884,VALID,29,VALID,0.813672,
2009-04-05, 00:45:05,VALID,998.613,VALID,0,VALID,92.4939,VALID,0,VALID,23.4884,VALID,29,VALID,0.841016,
2009-04-05, 00:46:05,VALID,998.636,VALID,0,VALID,92.4634,VALID,0,VALID,23.5079,VALID,29,VALID,0.773047,
2009-04-05, 00:47:05,VALID,998.649,VALID,0,VALID,92.3489,VALID,0,VALID,23.5274,VALID,29,VALID,0.732031,
2009-04-05, 00:48:05,VALID,998.661,VALID,0,VALID,92.2497,VALID,0,VALID,23.5256,VALID,29,VALID,0.714453,
2009-04-05, 00:49:05,VALID,998.66,VALID,0,VALID,92.1887,VALID,0,VALID,23.5664,VALID,29,VALID,0.687891,
2009-04-05, 00:50:05,VALID,998.648,VALID,0,VALID,92.1506,VALID,0,VALID,23.5451,VALID,29,VALID,0.694531,
2009-04-05, 00:51:05,VALID,998.683,VALID,0,VALID,92.1277,VALID,0,VALID,23.5859,VALID,29,VALID,0.765625,
2009-04-05, 00:52:05,VALID,998.662,VALID,0,VALID,92.0971,VALID,0,VALID,23.5664,VALID,29,VALID,0.818359,
2009-04-05, 00:53:05,VALID,998.68,VALID,0,VALID,91.998,VALID,0,VALID,23.5451,VALID,31,VALID,0.859766,
2009-04-05, 00:54:05,VALID,998.644,VALID,0,VALID,91.9369,VALID,0,VALID,23.5664,VALID,43,VALID,0.988281,
2009-04-05, 00:55:05,VALID,998.626,VALID,0,VALID,91.9445,VALID,0,VALID,23.5859,VALID,43,VALID,1.03281,
2009-04-05, 00:56:05,VALID,998.639,VALID,0,VALID,91.8911,VALID,0,VALID,23.5646,VALID,42,VALID,0.794922,
2009-04-05, 00:57:05,VALID,998.632,VALID,0,VALID,91.8988,VALID,0,VALID,23.6054,VALID,42,VALID,0.807031,
2009-04-05, 00:58:05,VALID,998.631,VALID,0,VALID,91.8911,VALID,0,VALID,23.6054,VALID,48,VALID,0.810547,
2009-04-05, 00:59:05,VALID,998.627,VALID,0,VALID,91.8301,VALID,0,VALID,23.5859,VALID,52,VALID,0.956641,
2009-04-05, 01:00:05,VALID,998.619,VALID,0,VALID,91.7691,VALID,0,VALID,23.625,VALID,57,VALID,0.952344,
2009-04-05, 01:01:05,VALID,998.632,VALID,0,VALID,91.7691,VALID,0,VALID,23.6054,VALID,58,VALID,0.684766,
2009-04-05, 01:02:05,VALID,998.583,VALID,0,VALID,91.6851,VALID,0,VALID,23.625,VALID,58,VALID,0.698047,
2009-04-05, 01:03:05,VALID,998.574,VALID,0,VALID,91.6699,VALID,0,VALID,23.6054,VALID,58,VALID,0.561719,
2009-04-05, 01:04:05,VALID,998.558,VALID,0,VALID,91.6775,VALID,0,VALID,23.6054,VALID,58,VALID,0.353125,
2009-04-05, 01:05:05,VALID,998.506,VALID,0,VALID,91.7157,VALID,0,VALID,23.6054,VALID,58,VALID,0.170703,
2009-04-05, 01:06:05,VALID,998.502,VALID,0,VALID,91.7233,VALID,0,VALID,23.6054,VALID,58,VALID,0.303906,
2009-04-05, 01:07:05,VALID,998.47,VALID,0,VALID,91.7233,VALID,0.112286,VALID,23.6036,VALID,58,VALID,0.335547,
2009-04-05, 01:08:05,VALID,998.503,VALID,0,VALID,91.7691,VALID,0,VALID,23.5628,VALID,58,VALID,0.270703,
2009-04-05, 01:09:05,VALID,998.474,VALID,0,VALID,91.7996,VALID,0,VALID,23.6036,VALID,58,VALID,0.169531,
2009-04-05, 01:10:05,VALID,998.46,VALID,0,VALID,91.7996,VALID,0,VALID,23.5841,VALID,58,VALID,0.178906,
2009-04-05, 01:11:05,VALID,998.456,VALID,0,VALID,91.8225,VALID,0,VALID,23.5841,VALID,58,VALID,0.273828,
2009-04-05, 01:12:05,VALID,998.444,VALID,0,VALID,91.8683,VALID,0,VALID,23.5841,VALID,58,VALID,0.394141,
2009-04-05, 01:13:05,VALID,998.41,VALID,0,VALID,91.8911,VALID,0,VALID,23.5841,VALID,58,VALID,0.364453,
2009-04-05, 01:14:05,VALID,998.411,VALID,0,VALID,91.8759,VALID,0,VALID,23.5841,VALID,58,VALID,0.325781,
2009-04-05, 01:15:05,VALID,998.419,VALID,0,VALID,91.853,VALID,0.112286,VALID,23.6036,VALID,58,VALID,0.247656,
2009-04-05, 01:16:05,VALID,998.356,VALID,0,VALID,91.8683,VALID,0,VALID,23.6036,VALID,58,VALID,0.126563,
2009-04-05, 01:17:05,VALID,998.383,VALID,0,VALID,91.9217,VALID,0.112286,VALID,23.6036,VALID,58,VALID,0,
2009-04-05, 01:18:05,VALID,998.35,VALID,0,VALID,91.9217,VALID,0,VALID,23.6036,VALID,58,VALID,0,
2009-04-05, 01:19:05,VALID,998.364,VALID,0,VALID,91.9445,VALID,0.112286,VALID,23.5841,VALID,58,VALID,0,
2009-04-05, 01:20:05,VALID,998.333,VALID,0,VALID,91.9064,VALID,0.112286,VALID,23.5646,VALID,58,VALID,0,
2009-04-05, 01:21:05,VALID,998.322,VALID,0,VALID,91.9064,VALID,0.112286,VALID,23.5256,VALID,58,VALID,0,
2009-04-05, 01:22:05,VALID,998.289,VALID,0,VALID,92.1429,VALID,0,VALID,23.5469,VALID,155,VALID,0.555469,
2009-04-05, 01:23:05,VALID,998.288,VALID,0,VALID,92.326,VALID,0,VALID,23.5859,VALID,141,VALID,0.723047,
2009-04-05, 01:24:05,VALID,998.272,VALID,0,VALID,92.2574,VALID,0,VALID,23.6445,VALID,138,VALID,0.571875,
2009-04-05, 01:25:05,VALID,998.242,VALID,0,VALID,92.1277,VALID,0,VALID,23.6427,VALID,138,VALID,0.477734,
2009-04-05, 01:26:05,VALID,998.249,VALID,0,VALID,91.9522,VALID,0,VALID,23.703,VALID,138,VALID,0.417969,
2009-04-05, 01:27:05,VALID,998.248,VALID,0,VALID,91.853,VALID,0,VALID,23.742,VALID,136,VALID,0.48125,
2009-04-05, 01:28:05,VALID,998.231,VALID,0,VALID,91.7233,VALID,0,VALID,23.7616,VALID,135,VALID,0.441016,
2009-04-05, 01:29:05,VALID,998.196,VALID,0,VALID,91.5707,VALID,0,VALID,23.7811,VALID,135,VALID,0.386328,
2009-04-05, 01:30:05,VALID,998.182,VALID,0,VALID,91.4105,VALID,0,VALID,23.8201,VALID,136,VALID,0.466016,
2009-04-05, 01:31:05,VALID,998.218,VALID,0,VALID,91.2426,VALID,0,VALID,23.8201,VALID,136,VALID,0.0835937,
2009-04-05, 01:32:05,VALID,998.19,VALID,0,VALID,91.2045,VALID,0,VALID,23.8396,VALID,136,VALID,0,
2009-04-05, 01:33:05,VALID,998.187,VALID,0,VALID,91.0519,VALID,0,VALID,23.8396,VALID,136,VALID,0.353906,
2009-04-05, 01:34:05,VALID,998.183,VALID,0,VALID,91.029,VALID,0,VALID,23.8396,VALID,136,VALID,0.0808594,
2009-04-05, 01:35:05,VALID,998.18,VALID,0,VALID,90.9374,VALID,0,VALID,23.8396,VALID,136,VALID,0,
2009-04-05, 01:36:05,VALID,998.193,VALID,0,VALID,90.9146,VALID,0,VALID,23.8396,VALID,136,VALID,0,
2009-04-05, 01:37:05,VALID,998.174,VALID,0,VALID,90.9069,VALID,0,VALID,23.8183,VALID,136,VALID,0,
2009-04-05, 01:38:05,VALID,998.162,VALID,0,VALID,90.9909,VALID,0,VALID,23.8183,VALID,138,VALID,0.186328,
2009-04-05, 01:39:05,VALID,998.168,VALID,0,VALID,90.9451,VALID,0.112286,VALID,23.8378,VALID,138,VALID,0,
2009-04-05, 01:40:05,VALID,998.183,VALID,0,VALID,91.09,VALID,0.112286,VALID,23.797,VALID,138,VALID,0.411719,
2009-04-05, 01:41:05,VALID,998.172,VALID,0,VALID,91.0977,VALID,0.112286,VALID,23.8183,VALID,4,VALID,0.358984,
2009-04-05, 01:42:05,VALID,998.109,VALID,0,VALID,91.1892,VALID,0,VALID,23.8183,VALID,4,VALID,0.267578,
2009-04-05, 01:43:05,VALID,998.134,VALID,0,VALID,91.2503,VALID,0,VALID,23.8183,VALID,4,VALID,0.0710938,
2009-04-05, 01:44:05,VALID,998.106,VALID,0,VALID,91.2655,VALID,0,VALID,23.8183,VALID,4,VALID,0.317187,
2009-04-05, 01:45:05,VALID,998.1,VALID,0,VALID,91.2731,VALID,0,VALID,23.8183,VALID,4,VALID,0.283203,
2009-04-05, 01:46:05,VALID,998.093,VALID,0,VALID,91.2655,VALID,0,VALID,23.8183,VALID,4,VALID,0.228516,
2009-04-05, 01:47:05,VALID,998.065,VALID,0,VALID,91.1968,VALID,0.112286,VALID,23.7988,VALID,4,VALID,0,
2009-04-05, 01:48:05,VALID,998.031,VALID,0,VALID,91.1816,VALID,0,VALID,23.7988,VALID,4,VALID,0.248047,
2009-04-05, 01:49:05,VALID,998.058,VALID,0,VALID,91.1892,VALID,0.112286,VALID,23.7988,VALID,29,VALID,0.468359,
2009-04-05, 01:50:05,VALID,998.04,VALID,0,VALID,91.296,VALID,0,VALID,23.8183,VALID,29,VALID,0.330859,
2009-04-05, 01:51:05,VALID,997.984,VALID,0,VALID,91.2503,VALID,0,VALID,23.8183,VALID,72,VALID,0.466016,
2009-04-05, 01:52:05,VALID,997.986,VALID,0,VALID,91.1511,VALID,0,VALID,23.8201,VALID,115,VALID,0.349219,
2009-04-05, 01:53:05,VALID,997.972,VALID,0,VALID,91.1129,VALID,0,VALID,23.8396,VALID,115,VALID,0.109375,
2009-04-05, 01:54:04,VALID,997.944,VALID,0,VALID,91.0214,VALID,0,VALID,23.8396,VALID,115,VALID,0,
2009-04-05, 01:55:04,VALID,997.934,VALID,0,VALID,90.9298,VALID,0,VALID,23.8396,VALID,115,VALID,0,
2009-04-05, 01:56:04,VALID,997.943,VALID,0,VALID,90.884,VALID,0,VALID,23.8591,VALID,115,VALID,0,
2009-04-05, 01:57:04,VALID,997.946,VALID,0,VALID,90.8154,VALID,0,VALID,23.8396,VALID,115,VALID,0,
2009-04-05, 01:58:04,VALID,997.967,VALID,0,VALID,90.884,VALID,0,VALID,23.7988,VALID,115,VALID,0,
2009-04-05, 01:59:04,VALID,997.943,VALID,0,VALID,91.0061,VALID,0,VALID,23.8201,VALID,115,VALID,0,
2009-04-05, 02:00:04,VALID,997.923,VALID,0,VALID,90.9527,VALID,0,VALID,23.8201,VALID,115,VALID,0,
2009-04-05, 02:01:04,VALID,997.967,VALID,0,VALID,90.8611,VALID,0,VALID,23.8396,VALID,115,VALID,0,
2009-04-05, 02:02:04,VALID,997.963,VALID,0,VALID,90.7925,VALID,0,VALID,23.8396,VALID,115,VALID,0,
2009-04-05, 02:03:04,VALID,997.971,VALID,0,VALID,90.7696,VALID,0,VALID,23.8591,VALID,115,VALID,0,
2009-04-05, 02:04:04,VALID,997.928,VALID,0,VALID,90.7085,VALID,0,VALID,23.8805,VALID,115,VALID,0,
2009-04-05, 02:05:04,VALID,997.956,VALID,0,VALID,90.6857,VALID,0,VALID,23.8786,VALID,115,VALID,0,
2009-04-05, 02:06:04,VALID,997.953,VALID,0,VALID,90.8535,VALID,0,VALID,23.8982,VALID,115,VALID,0,
2009-04-05, 02:07:04,VALID,998.005,VALID,0,VALID,90.9298,VALID,0,VALID,23.9159,VALID,115,VALID,0.00703125,
2009-04-05, 02:08:04,VALID,997.992,VALID,0,VALID,90.9069,VALID,0,VALID,23.8963,VALID,115,VALID,0.177734,
2009-04-05, 02:09:04,VALID,998.029,VALID,0,VALID,90.968,VALID,0,VALID,23.8963,VALID,115,VALID,0.385156,
2009-04-05, 02:10:04,VALID,998.038,VALID,0,VALID,91.09,VALID,0,VALID,23.9159,VALID,115,VALID,0.501953,
2009-04-05, 02:11:04,VALID,998.047,VALID,0,VALID,91.0595,VALID,0,VALID,23.9354,VALID,115,VALID,0.725781,
2009-04-05, 02:12:04,VALID,998.01,VALID,0,VALID,90.8688,VALID,0.112286,VALID,23.9549,VALID,115,VALID,0.803906,
2009-04-05, 02:13:04,VALID,998.061,VALID,0,VALID,90.7772,VALID,0,VALID,23.9531,VALID,115,VALID,0.758594,
2009-04-05, 02:14:04,VALID,998.031,VALID,0,VALID,90.7849,VALID,0.112286,VALID,23.9939,VALID,115,VALID,0.74375,
2009-04-05, 02:15:04,VALID,998.033,VALID,0,VALID,90.7085,VALID,0,VALID,24.0134,VALID,108,VALID,0.840234,
2009-04-05, 02:16:04,VALID,998.034,VALID,0,VALID,90.7085,VALID,0,VALID,24.0329,VALID,105,VALID,0.55625,
2009-04-05, 02:17:04,VALID,998.055,VALID,0,VALID,90.823,VALID,0,VALID,24.0525,VALID,98,VALID,0.700391,
2009-04-05, 02:18:04,VALID,998.065,VALID,0,VALID,90.8611,VALID,0,VALID,24.0329,VALID,99,VALID,0.346484,
2009-04-05, 02:19:04,VALID,998.027,VALID,0,VALID,90.823,VALID,0,VALID,24.0134,VALID,83,VALID,0.53125,
2009-04-05, 02:20:04,VALID,998.023,VALID,0,VALID,90.678,VALID,0,VALID,24.0116,VALID,57,VALID,0.744922,
2009-04-05, 02:21:04,VALID,998.025,VALID,0,VALID,90.3118,VALID,0,VALID,23.9939,VALID,56,VALID,0.577734,
2009-04-05, 02:22:04,VALID,998.013,VALID,0,VALID,90.5102,VALID,0,VALID,24.0153,VALID,53,VALID,0.451562,
2009-04-05, 02:23:04,VALID,998.055,VALID,0,VALID,90.6628,VALID,0,VALID,23.9939,VALID,52,VALID,0.609375,
2009-04-05, 02:24:04,VALID,998.062,VALID,0,VALID,90.8917,VALID,0,VALID,23.9744,VALID,52,VALID,0.536328,
2009-04-05, 02:25:04,VALID,998.077,VALID,0,VALID,91.1587,VALID,0,VALID,23.9744,VALID,53,VALID,0.659766,
2009-04-05, 02:26:04,VALID,998.094,VALID,0,VALID,91.3266,VALID,0,VALID,23.9549,VALID,55,VALID,0.889844,
2009-04-05, 02:27:04,VALID,998.075,VALID,0,VALID,91.4563,VALID,0,VALID,23.9354,VALID,57,VALID,0.8875,
2009-04-05, 02:28:04,VALID,998.101,VALID,0,VALID,91.5326,VALID,0,VALID,23.9354,VALID,55,VALID,0.975781,
2009-04-05, 02:29:04,VALID,998.092,VALID,0,VALID,91.5783,VALID,0,VALID,23.9159,VALID,51,VALID,0.591016,
2009-04-05, 02:30:04,VALID,998.093,VALID,0,VALID,91.6241,VALID,0,VALID,23.8963,VALID,46,VALID,0.680859,
2009-04-05, 02:31:04,VALID,998.083,VALID,0,VALID,91.6928,VALID,0,VALID,23.8768,VALID,44,VALID,0.661719,
2009-04-05, 02:32:04,VALID,998.075,VALID,0,VALID,91.7385,VALID,0,VALID,23.8573,VALID,37,VALID,0.697266,
2009-04-05, 02:33:04,VALID,998.048,VALID,0,VALID,91.8072,VALID,0,VALID,23.8378,VALID,16,VALID,0.689453,
2009-04-05, 02:34:04,VALID,998.022,VALID,0,VALID,91.8835,VALID,0,VALID,23.8183,VALID,4,VALID,0.784766,
2009-04-05, 02:35:04,VALID,998.015,VALID,0,VALID,91.998,VALID,0,VALID,23.7793,VALID,3,VALID,0.798437,
2009-04-05, 02:36:04,VALID,997.983,VALID,0,VALID,92.059,VALID,0,VALID,23.7793,VALID,2,VALID,0.732813,
2009-04-05, 02:37:04,VALID,997.985,VALID,0,VALID,92.1353,VALID,0,VALID,23.7793,VALID,2,VALID,0.609375,
2009-04-05, 02:38:04,VALID,997.973,VALID,0,VALID,92.1658,VALID,0,VALID,23.7793,VALID,2,VALID,0.657422,
2009-04-05, 02:39:04,VALID,997.981,VALID,0,VALID,92.2116,VALID,0,VALID,23.7793,VALID,2,VALID,0.616797,
2009-04-05, 02:40:04,VALID,997.975,VALID,0,VALID,92.2726,VALID,0,VALID,23.7793,VALID,2,VALID,0.464844,
2009-04-05, 02:41:04,VALID,997.96,VALID,0,VALID,92.3108,VALID,0,VALID,23.7793,VALID,2,VALID,0.58125,
2009-04-05, 02:42:04,VALID,997.968,VALID,0,VALID,92.3413,VALID,0,VALID,23.7793,VALID,2,VALID,0.523438,
2009-04-05, 02:43:04,VALID,997.975,VALID,0,VALID,92.3947,VALID,0,VALID,23.7597,VALID,3,VALID,0.479297,
2009-04-05, 02:44:04,VALID,997.962,VALID,0,VALID,92.4176,VALID,0,VALID,23.7597,VALID,3,VALID,0.370703,
2009-04-05, 02:45:04,VALID,997.994,VALID,0,VALID,92.4023,VALID,0,VALID,23.7597,VALID,3,VALID,0.623828,
2009-04-05, 02:46:04,VALID,997.957,VALID,0,VALID,92.4481,VALID,0,VALID,23.7402,VALID,3,VALID,0.528516,
2009-04-05, 02:47:04,VALID,997.961,VALID,0,VALID,92.4481,VALID,0.112286,VALID,23.7189,VALID,3,VALID,0.598047,
2009-04-05, 02:48:04,VALID,997.991,VALID,0,VALID,92.4481,VALID,0,VALID,23.7402,VALID,3,VALID,0.700781,
2009-04-05, 02:49:04,VALID,997.994,VALID,0,VALID,92.471,VALID,0,VALID,23.7207,VALID,3,VALID,0.746875,
2009-04-05, 02:50:04,VALID,998.018,VALID,0,VALID,92.4863,VALID,0,VALID,23.7402,VALID,18,VALID,0.753906,
2009-04-05, 02:51:04,VALID,998.055,VALID,0,VALID,92.5091,VALID,0,VALID,23.7402,VALID,18,VALID,0.58125,
2009-04-05, 02:52:04,VALID,998.081,VALID,0,VALID,92.5168,VALID,0,VALID,23.7402,VALID,22,VALID,0.464844,
2009-04-05, 02:53:04,VALID,998.09,VALID,0,VALID,92.5473,VALID,0,VALID,23.7597,VALID,60,VALID,0.659766,
2009-04-05, 02:54:04,VALID,998.122,VALID,0,VALID,92.5626,VALID,0,VALID,23.7597,VALID,68,VALID,0.633594,
2009-04-05, 02:55:04,VALID,998.147,VALID,0,VALID,92.5702,VALID,0,VALID,23.7811,VALID,69,VALID,0.476563,
2009-04-05, 02:56:04,VALID,998.206,VALID,0,VALID,92.5626,VALID,0,VALID,23.7793,VALID,69,VALID,0.469922,
2009-04-05, 02:57:04,VALID,998.179,VALID,0,VALID,92.5244,VALID,0,VALID,23.7988,VALID,69,VALID,0.426172,
2009-04-05, 02:58:04,VALID,998.192,VALID,0,VALID,92.5397,VALID,0,VALID,23.7988,VALID,69,VALID,0.425391,
2009-04-05, 02:59:04,VALID,998.213,VALID,0,VALID,92.532,VALID,0,VALID,23.7988,VALID,69,VALID,0.326562,
2009-04-05, 03:00:04,VALID,998.231,VALID,0,VALID,92.532,VALID,0,VALID,23.8183,VALID,67,VALID,0.491406,
2009-04-05, 03:01:04,VALID,998.27,VALID,0,VALID,92.5778,VALID,0,VALID,23.7988,VALID,62,VALID,0.539453,
2009-04-05, 03:02:04,VALID,998.283,VALID,0,VALID,92.5702,VALID,0,VALID,23.8183,VALID,62,VALID,0.478516,
2009-04-05, 03:03:04,VALID,998.294,VALID,0,VALID,92.5778,VALID,0,VALID,23.8183,VALID,62,VALID,0.571875,
2009-04-05, 03:04:04,VALID,998.307,VALID,0,VALID,92.5778,VALID,0,VALID,23.8183,VALID,61,VALID,0.583594,
2009-04-05, 03:05:04,VALID,998.33,VALID,0,VALID,92.6312,VALID,0,VALID,23.7988,VALID,61,VALID,0.514453,
2009-04-05, 03:06:04,VALID,998.34,VALID,0,VALID,92.5854,VALID,0,VALID,23.7988,VALID,47,VALID,0.685547,
2009-04-05, 03:07:04,VALID,998.373,VALID,0,VALID,92.5702,VALID,0,VALID,23.8183,VALID,46,VALID,0.756641,
2009-04-05, 03:08:04,VALID,998.376,VALID,0,VALID,92.5854,VALID,0,VALID,23.7988,VALID,45,VALID,0.913281,
2009-04-05, 03:09:04,VALID,998.407,VALID,0,VALID,92.5778,VALID,0,VALID,23.8183,VALID,45,VALID,1.05469,
2009-04-05, 03:10:04,VALID,998.406,VALID,0,VALID,92.5397,VALID,0,VALID,23.8183,VALID,46,VALID,1.26875,
2009-04-05, 03:11:04,VALID,998.395,VALID,0,VALID,92.3489,VALID,0,VALID,23.8378,VALID,45,VALID,1.41172,
2009-04-05, 03:12:04,VALID,998.418,VALID,0,VALID,92.2116,VALID,0,VALID,23.8378,VALID,43,VALID,1.35625,
2009-04-05, 03:13:04,VALID,998.412,VALID,0,VALID,92.41,VALID,0,VALID,23.8378,VALID,46,VALID,1.13359,
2009-04-05, 03:14:04,VALID,998.445,VALID,0,VALID,92.677,VALID,0,VALID,23.8573,VALID,52,VALID,1.15586,
2009-04-05, 03:15:04,VALID,998.448,VALID,0,VALID,92.8143,VALID,0,VALID,23.8768,VALID,53,VALID,1.39922,
2009-04-05, 03:16:04,VALID,998.447,VALID,0,VALID,92.6694,VALID,0,VALID,23.8768,VALID,58,VALID,1.49023,
2009-04-05, 03:17:04,VALID,998.47,VALID,0,VALID,92.738,VALID,0,VALID,23.8768,VALID,49,VALID,1.27148,
2009-04-05, 03:18:04,VALID,998.471,VALID,0,VALID,92.7914,VALID,0,VALID,23.8768,VALID,54,VALID,1.47422,
2009-04-05, 03:19:04,VALID,998.443,VALID,0,VALID,92.8601,VALID,0,VALID,23.8768,VALID,55,VALID,1.01055,
2009-04-05, 03:20:04,VALID,998.452,VALID,0,VALID,92.944,VALID,0,VALID,23.8768,VALID,52,VALID,1.10586,
2009-04-05, 03:21:04,VALID,998.472,VALID,0,VALID,92.9974,VALID,0,VALID,23.8768,VALID,63,VALID,0.992188,
2009-04-05, 03:22:04,VALID,998.481,VALID,0,VALID,93.0508,VALID,0,VALID,23.8768,VALID,62,VALID,0.691797,
2009-04-05, 03:23:04,VALID,998.485,VALID,0,VALID,93.0737,VALID,0,VALID,23.8768,VALID,71,VALID,0.78125,
2009-04-05, 03:24:04,VALID,998.488,VALID,0,VALID,93.1043,VALID,0,VALID,23.8573,VALID,74,VALID,0.526563,
2009-04-05, 03:25:04,VALID,998.482,VALID,0,VALID,93.1882,VALID,0,VALID,23.8982,VALID,79,VALID,0.318359,
2009-04-05, 03:26:04,VALID,998.469,VALID,0,VALID,93.2568,VALID,0,VALID,23.8768,VALID,79,VALID,0.247656,
2009-04-05, 03:27:04,VALID,998.471,VALID,0,VALID,93.2416,VALID,0,VALID,23.8963,VALID,79,VALID,0.059375,
2009-04-05, 03:28:04,VALID,998.459,VALID,0,VALID,93.2263,VALID,0,VALID,23.8963,VALID,79,VALID,0,
2009-04-05, 03:29:04,VALID,998.453,VALID,0,VALID,93.2263,VALID,0,VALID,23.8963,VALID,79,VALID,0,
2009-04-05, 03:30:04,VALID,998.442,VALID,0,VALID,93.2568,VALID,0,VALID,23.8963,VALID,79,VALID,0.0691406,
2009-04-05, 03:31:04,VALID,998.436,VALID,0,VALID,93.3103,VALID,0,VALID,23.8963,VALID,79,VALID,0.160938,
2009-04-05, 03:32:04,VALID,998.432,VALID,0,VALID,93.3408,VALID,0,VALID,23.8963,VALID,79,VALID,0.198828,
2009-04-05, 03:33:04,VALID,998.428,VALID,0,VALID,93.3331,VALID,0,VALID,23.8963,VALID,79,VALID,0.211719,
2009-04-05, 03:34:04,VALID,998.457,VALID,0,VALID,93.3713,VALID,0,VALID,23.8768,VALID,79,VALID,0.150391,
2009-04-05, 03:35:04,VALID,998.477,VALID,0,VALID,93.3942,VALID,0,VALID,23.8963,VALID,79,VALID,0.021875,
2009-04-05, 03:36:04,VALID,998.479,VALID,0,VALID,93.4094,VALID,0,VALID,23.8963,VALID,99,VALID,0.0910156,
2009-04-05, 03:37:04,VALID,998.486,VALID,0,VALID,93.4552,VALID,0,VALID,23.9177,VALID,168,VALID,0.308203,
2009-04-05, 03:38:04,VALID,998.472,VALID,0,VALID,93.44,VALID,0,VALID,23.9372,VALID,168,VALID,0.346094,
2009-04-05, 03:39:04,VALID,998.484,VALID,0,VALID,93.4628,VALID,0,VALID,23.9159,VALID,168,VALID,0.302344,
2009-04-05, 03:40:04,VALID,998.501,VALID,0,VALID,93.4094,VALID,0,VALID,23.9372,VALID,168,VALID,0.351563,
2009-04-05, 03:41:04,VALID,998.468,VALID,0,VALID,93.3866,VALID,0,VALID,23.9567,VALID,168,VALID,0.3625,
2009-04-05, 03:42:04,VALID,998.472,VALID,0,VALID,93.3103,VALID,0,VALID,23.9567,VALID,168,VALID,0.432813,
2009-04-05, 03:43:04,VALID,998.5,VALID,0,VALID,93.2492,VALID,0,VALID,23.9567,VALID,168,VALID,0.200781,
2009-04-05, 03:44:04,VALID,998.488,VALID,0,VALID,93.1577,VALID,0,VALID,23.9762,VALID,168,VALID,0.0234375,
2009-04-05, 03:45:04,VALID,998.521,VALID,0,VALID,93.0814,VALID,0,VALID,23.9762,VALID,168,VALID,0,
2009-04-05, 03:46:04,VALID,998.511,VALID,0,VALID,93.1119,VALID,0,VALID,23.9762,VALID,168,VALID,0,
2009-04-05, 03:47:04,VALID,998.507,VALID,0,VALID,93.15,VALID,0,VALID,24.0153,VALID,154,VALID,0.471484,